Погода в Шоркасах

Россия / Чувашская Республика     55°40′02″N   47°22′01″E
темп.,
°C
ветер,
м/с
пор.,
м/с
влажн.,
%
обл.,
%
осадки,
мм/ч
давл.,
гПа
погр.,
м
14 апреля, ср
ср1400:00+7ю22725 0.0 103012
03:00+6ю227188 0.0 103011
06:00+2ююв22882 0.0 102918
09:00+8ююв258440 0.0 1028108
12:00+13ююв476840 0.0 1027359
15:00+17ююв586020 0.0 1025599
18:00+14юв47765 0.0 1023109
21:00+11ююв38854 0.0 1023108
15 апреля, чт
чт1500:00+10ююв33870 0.0 102232
03:00+9ююв22870 0.0 102112
06:00+8ююв23900 0.0 102141
09:00+13ю347610 0.0 1020366
12:00+16юз336580 0.1 1019795
15:00+17зюз225799 0.2 1019662
18:00+15сз11645 0.0 101811
21:00+12ссз227554 0.0 101914
16 апреля, пт
пт1600:00+9ссв6109298 0.0 1020371
03:00+8ссв61090100 0.0 1021468
06:00+7св61190100 0.1 1023520
09:00+7св61087100 0.1 1024564
12:00+8св697999 0.0 1025688
15:00+10всв796882 0.0 1025920
18:00+9всв510655 0.0 1025515
21:00+6св512705 0.0 1026276
17 апреля, сб
сб1700:00+4св511705 0.0 1027269
03:00+2св411753 0.0 1028228
06:00+2св411740 0.0 1029270
09:00+7всв68495 0.0 1029688
12:00+11всв67390 0.0 10281240
15:00+12св56360 0.0 10281515
18:00+9св36510 0.0 1028149
21:00+6св35640 0.0 102872
18 апреля, вс
вс1800:00+4св33690 0.0 102835
03:00+3ссв35760 0.0 102974
06:00+3ссв37795 0.0 1029164
09:00+8св46555 0.0 1029701
12:00+11св564668 0.0 10281535
15:00+12св664389 0.0 10281976
18:00+9св7106096 0.0 1029618
21:00+5всв5117095 0.0 1031458